{"data":{"norad_id":69277,"intl_designator":"2026-118L","name":"KUIPER-00592","alt_names":[],"object_type":"PAYLOAD","status":"ACTIVE","operator":null,"country":"US","launch_date":"2026-05-29","launch_site_code":"AFETR","launch_vehicle":null,"mission":null,"orbit_class":"UNKNOWN","rcs_meters":null,"size_class":null,"mass_kg":null,"dimensions":null,"purposes":[],"wikipedia_slug":null,"has_3d_model":false,"image_url":null,"decayed_at":null,"tle_current":{"epoch":"2026-09-19T17:32:51.218304Z","epoch_age_seconds":97281,"freshness":"FRESH","line1":"1 69277U 26118L   26262.73114836  .00005889  00000+0  79983-3 0  9998","line2":"2 69277  51.9026 342.4829 0000550 122.4181 237.6835 14.79985868 18162","mean_motion":14.79985868,"eccentricity":5.5e-5,"inclination_deg":51.9026,"raan_deg":342.4829,"arg_perigee_deg":122.4181,"mean_anomaly_deg":237.6835,"bstar":0.00079983,"rev_number":1816,"period_min":97.298226363875,"perigee_km":628.98333015194,"apogee_km":629.75415578366,"semimajor_km":7007.5057429678,"source":"CELESTRAK","updated_at":"2026-09-20T09:00:24.778746Z"}}}